Regional Weather Roundup
Issued by NWS

Home | Current Version | Previous Version | Graphics & Text | Print | Product List | Glossary On
Versions: 1 2 3 4 5 6 7 8 9 10 11 12 13 14 15 16 17 18 19 20 21 22 23 24 25 26 27 28 29 30 31 32 33 34 35 36 37 38 39 40 41 42 43 44 45 46 47 48 49 50
000
ASUS45 KPSR 121500
RWRAZ

PRELIMINARY ARIZONA REGIONAL HOURLY WEATHER ROUNDUP
NATIONAL WEATHER SERVICE PHOENIX AZ
800 AM MST SAT JUL 12 2014

NOTE: FAIR INDICATES FEW OR NO CLOUDS BELOW 12,000 FEET WITH NO
SIGNIFICANT WEATHER AND/OR OBSTRUCTIONS TO VISIBILITY.

AZZ001>003-036-121600-
NORTHWEST ARIZONA

CITY           SKY/WX    TMP DP  RH WIND       PRES   REMARKS
KINGMAN        SUNNY     79  49  34 S3        30.10R
$$

AZZ004>008-015-016-018-121600-
NORTH CENTRAL ARIZONA

CITY           SKY/WX    TMP DP  RH WIND       PRES   REMARKS
GRAND CANYON   SUNNY     69  53  56 CALM      30.33R
WILLIAMS       PTSUNNY   72  45  37 CALM      30.39R
PRESCOTT       SUNNY     75  41  29 CALM      30.21S
FLAGSTAFF      SUNNY     69  45  41 CALM      30.35S
PAYSON         SUNNY     77  50  38 CALM      30.23S
PAGE           MOSUNNY   83  44  25 CALM      30.15R
$$

AZZ009>014-017-121600-
NORTHEAST ARIZONA

CITY           SKY/WX    TMP DP  RH WIND       PRES   REMARKS
WINSLOW        NOT AVBL
SAINT JOHNS    SUNNY     70  54  56 CALM      30.26R
WINDOW ROCK    PTSUNNY   67  57  70 N3        30.34R
$$

AZZ023-121600-
GREATER PHOENIX AREA

CITY           SKY/WX    TMP DP  RH WIND       PRES   REMARKS
PHOENIX        PTSUNNY   91  60  35 SE7       29.90S
GLENDALE       PTSUNNY   91  59  33 SE5       29.90F
DEER VALLEY    MOSUNNY   90  58  33 S7        29.93R
SCOTTSDALE     MOSUNNY   88  62  41 CALM      29.95R
MESA-FALCON    MOSUNNY   90  61  37 VRB6      29.93
MESA-GATEWAY   MOSUNNY   88  63  42 SE9       29.95R
CHANDLER       PTSUNNY   91  59  33 VRB6      29.92R
$$

AZZ027-028-121600-
SOUTHWEST MARICOPA COUNTY AND PINAL COUNTY

CITY           SKY/WX    TMP DP  RH WIND       PRES   REMARKS
CASA GRANDE    SUNNY     88  61  40 SE5       29.95R
$$

AZZ503-504-507>509-121600-
SOUTHEAST ARIZONA

CITY           SKY/WX    TMP DP  RH WIND       PRES   REMARKS
TUCSON         SUNNY     77  63  61 S7        30.05R
NOGALES        MOSUNNY   71  62  73 CALM      30.12R
SIERRA VISTA   SUNNY     71  62  73 NE6       30.18R
SAFFORD        SUNNY     81  60  48 S8        30.07R
$$

AZZ020-021-025-026-031-121600-
SOUTHWEST ARIZONA

CITY           SKY/WX    TMP DP  RH WIND       PRES   REMARKS
YUMA           NOT AVBL
$$

CAZ031-033-041-043-047-048-061-121600-
SOUTHERN CALIFORNIA

CITY           SKY/WX    TMP DP  RH WIND       PRES   REMARKS
DOWNTOWN L.A.  SUNNY     71  61  70 CALM      29.99R
L.A. AIRPORT   PTSUNNY   69  61  75 VRB5      30.00R
SAN DIEGO      CLOUDY    71  60  68 CALM      30.02R
BURBANK        SUNNY     68  58  70 CALM      30.00R
ONTARIO        PTSUNNY   69  58  67 CALM      30.00S
RIVERSIDE      SUNNY     69  59  70 CALM      30.00S
PALM SPRINGS   SUNNY     86  54  33 W3        29.89S
EL CENTRO NAS  MOSUNNY   85  52  32 W7        29.85R
IMPERIAL       MOSUNNY   84  57  39 W6        29.85R
BLYTHE         MOSUNNY   84  49  29 E3        29.88R
$$

NVZ020-UTZ003-121600-
SOUTHERN NEVADA-UTAH

CITY           SKY/WX    TMP DP  RH WIND       PRES   REMARKS
LAS VEGAS      NOT AVBL
SALT LAKE CITY MOSUNNY   77  57  50 CALM      30.19R
$$

NMZ009-TXZ055-121600-
NEW MEXICO-WEST TEXAS

CITY           SKY/WX    TMP DP  RH WIND       PRES   REMARKS
ALBUQUERQUE    MOSUNNY   72  58  61 CALM      30.26S
EL PASO        MOSUNNY   79  59  50 SE8       30.14R
$$


........................KEY........................
SKY/WX - SKY CONDITION/WEATHER
TMP    - TEMPERATURE IN FAHRENHEIT
DP     - DEW POINT IN FAHRENHEIT
RH     - RELATIVE HUMIDITY IN PERCENT
WIND   - DIRECTION AND SPEED IN MILES PER HOUR (MPH)
VRB    - VARIABLE WIND DIRECTION
PRES   - MEAN SEA LEVEL PRESSURE IN INCHES OF MERCURY
         F - FALLING PRESSURE   R - RISING PRESSURE
         S - STEADY PRESSURE
VSB    - VISIBILITY IN MILES
HX     - HEAT INDEX IN FAHRENHEIT
WCI    - WIND CHILL INDEX IN FAHRENHEIT
TC     - TEMPERATURE IN CELSIUS WHICH IS ALSO KNOWN AS
         TEMPERATURE IN CENTIGRADE
AFB    - AIR FORCE BASE
         LUKE AFB IS LUKE AIR FORCE BASE
         DAVIS-MONTHAN IS DAVIS-MONTHAN AIR FORCE BASE
NAS    - NAVAL AIR STATION
         EL CENTRO NAS IS EL CENTRO NAVAL AIR STATION
N/A    - NOT AVAILABLE



USA.gov is the U.S. government's official web portal to all federal, state and local government web resources and services.